Location: ?????????
(54.7630°N, 39.4991°E)
Time: 11:15:14
(UTC+00:00)

BREEZE-M DEB (TANK) - Pass Details

Date: 14 April 2026
Orbit: 338 x 15827 km, 49.4° (Epoch: 10 May)

Event Time Altitude Azimuth Distance (km) Brightness Sun altitude
Rises 22:52:40 0° 256° (WSW) 13,574 9.0 -22.8°
Reaches altitude 10° 23:07:34 10° 257° (WSW) 9,541 8.2 -21.9°
Maximum altitude 23:30:28 64° 184° (S) 1,715 4.5 -20.1°
Drops below altitude 10° 23:35:39 10° 102° (ESE) 2,421 5.9 -19.7°
Sets 23:37:06 0° 99° (E) 3,001 6.4 -19.6°
